{"data":{"norad_id":57500,"intl_designator":"2023-113F","name":"STARLINK-30164","alt_names":[],"object_type":"PAYLOAD","status":"ACTIVE","operator":null,"country":"US","launch_date":"2023-08-07","launch_site_code":"AFETR","launch_vehicle":null,"mission":null,"orbit_class":"UNKNOWN","rcs_meters":null,"size_class":null,"mass_kg":null,"dimensions":null,"purposes":["comms"],"wikipedia_slug":null,"has_3d_model":false,"image_url":null,"decayed_at":null,"tle_current":{"epoch":"2026-05-24T18:56:24.535968Z","epoch_age_seconds":86505,"freshness":"FRESH","line1":"1 57500U 23113F   26144.78917287  .00004949  00000+0  18938-3 0  9990","line2":"2 57500  43.0038 306.2981 0001032 276.5967  83.4767 15.27557502155313","mean_motion":15.27557502,"eccentricity":0.0001032,"inclination_deg":43.0038,"raan_deg":306.2981,"arg_perigee_deg":276.5967,"mean_anomaly_deg":83.4767,"bstar":0.00018938,"rev_number":15531,"period_min":94.268137082541,"perigee_km":482.40838261461,"apogee_km":483.82454532957,"semimajor_km":6861.2534639721,"source":"CELESTRAK","updated_at":"2026-05-25T13:38:18.327920Z"}}}